DAL1571 KATL-TJSJ

Flight info

Callsign DAL1571
Flight time 3h 7m
Altitude 41000
Route VRSTY3 NOKIE DCT YANTI Q89 MANLE Y185 RENAH Y355 PLING RTE7 SAALR
Aircraft B772/H-SDE2E3FGHIJ5LORVWXY/LB1D1

Departure

Time 2026-05-05 18:10
Airport Hartsfield Jackson Atlanta International Airport (KATL)

Arrival

Time 2026-05-05 21:17
Airport Luis Munoz Marin International Airport (TJSJ)
Time Latitude Longitude Altitude Speed Heading
2026-05-05 17:49 33.64188 -84.42635 1004 ft 0 kts 90°
2026-05-05 17:52 33.64188 -84.42634 1004 ft 0 kts 90°
2026-05-05 17:52 33.64188 -84.42633 1004 ft 0 kts 90°
2026-05-05 17:54 33.64188 -84.42646 1004 ft 2 kts 90°
2026-05-05 17:54 33.64188 -84.42671 1005 ft 3 kts 91°
2026-05-05 17:54 33.64188 -84.42693 1006 ft 1 kts 92°
2026-05-05 17:54 33.64189 -84.42707 1007 ft 2 kts 92°
2026-05-05 17:55 33.64189 -84.42708 1007 ft 0 kts 92°
2026-05-05 17:55 33.64189 -84.42710 1007 ft 0 kts 92°
2026-05-05 17:55 33.64190 -84.42724 1007 ft 1 kts 117°
2026-05-05 17:55 33.64197 -84.42732 1007 ft 1 kts 159°
2026-05-05 17:56 33.64206 -84.42734 1007 ft 2 kts 191°
2026-05-05 17:56 33.64229 -84.42728 1007 ft 2 kts 176°
2026-05-05 17:56 33.64252 -84.42731 1006 ft 3 kts 178°
2026-05-05 17:56 33.64255 -84.42732 1006 ft 0 kts 178°
2026-05-05 17:57 33.64234 -84.42731 1006 ft 3 kts 180°
2026-05-05 17:57 33.64207 -84.42733 1007 ft 3 kts 181°
2026-05-05 17:57 33.64182 -84.42728 1007 ft 3 kts 170°
2026-05-05 17:57 33.64159 -84.42730 1007 ft 3 kts 187°
2026-05-05 17:58 33.64131 -84.42731 1007 ft 3 kts 181°
2026-05-05 17:58 33.64114 -84.42731 1007 ft 0 kts 179°
2026-05-05 18:03 33.64113 -84.42731 1007 ft 0 kts 179°
2026-05-05 18:03 33.64080 -84.42731 1007 ft 9 kts 182°
2026-05-05 18:04 33.63995 -84.42733 1008 ft 13 kts 180°
2026-05-05 18:04 33.63904 -84.42734 1008 ft 13 kts 180°
2026-05-05 18:04 33.63809 -84.42733 1008 ft 13 kts 180°
2026-05-05 18:04 33.63710 -84.42733 1008 ft 14 kts 180°
2026-05-05 18:05 33.63656 -84.42654 1006 ft 15 kts 92°
2026-05-05 18:05 33.63654 -84.42518 1002 ft 15 kts 89°
2026-05-05 18:05 33.63654 -84.42380 998 ft 17 kts 90°
2026-05-05 18:05 33.63655 -84.42222 993 ft 20 kts 90°
2026-05-05 18:06 33.63654 -84.42038 988 ft 23 kts 89°
2026-05-05 18:06 33.63655 -84.41898 982 ft 26 kts 91°
2026-05-05 18:06 33.63654 -84.41594 974 ft 28 kts 90°
2026-05-05 18:06 33.63654 -84.41351 969 ft 30 kts 90°
2026-05-05 18:07 33.63653 -84.41098 965 ft 28 kts 90°
2026-05-05 18:07 33.63656 -84.40954 963 ft 12 kts 89°
2026-05-05 18:07 33.63657 -84.40840 961 ft 13 kts 90°
2026-05-05 18:07 33.63628 -84.40758 960 ft 3 kts 152°
2026-05-05 18:08 33.63616 -84.40753 960 ft 0 kts 163°
2026-05-05 18:08 33.63615 -84.40753 960 ft 0 kts 163°
2026-05-05 18:08 33.63600 -84.40749 960 ft 4 kts 171°
2026-05-05 18:09 33.63541 -84.40743 959 ft 13 kts 179°
2026-05-05 18:09 33.63475 -84.40800 960 ft 13 kts 263°
2026-05-05 18:09 33.63469 -84.41156 966 ft 85 kts 270°
2026-05-05 18:09 33.63470 -84.42191 995 ft 158 kts 270°
2026-05-05 18:10 33.63483 -84.43604 1530 ft 173 kts 264°
2026-05-05 18:10 33.63471 -84.45001 2477 ft 168 kts 264°
2026-05-05 18:10 33.63454 -84.46458 2845 ft 183 kts 265°
2026-05-05 18:10 33.63424 -84.48058 3173 ft 201 kts 265°
2026-05-05 18:11 33.63407 -84.49809 3500 ft 221 kts 266°
2026-05-05 18:11 33.63385 -84.51730 3917 ft 240 kts 266°
2026-05-05 18:11 33.63379 -84.53760 4594 ft 251 kts 268°
2026-05-05 18:11 33.63386 -84.55888 5273 ft 263 kts 268°
2026-05-05 18:12 33.63398 -84.58129 5982 ft 273 kts 269°
2026-05-05 18:12 33.63414 -84.60376 6880 ft 274 kts 269°
2026-05-05 18:12 33.63427 -84.62640 7811 ft 272 kts 268°
2026-05-05 18:12 33.63058 -84.64796 8639 ft 270 kts 245°
2026-05-05 18:13 33.61915 -84.66542 9416 ft 271 kts 220°
2026-05-05 18:13 33.60355 -84.67838 10167 ft 275 kts 215°
2026-05-05 18:13 33.58609 -84.68958 10566 ft 294 kts 204°
2026-05-05 18:13 33.56563 -84.69531 10938 ft 316 kts 187°
2026-05-05 18:14 33.54284 -84.69371 11363 ft 338 kts 173°
2026-05-05 18:14 33.51942 -84.68824 11805 ft 354 kts 172°
2026-05-05 18:14 33.49452 -84.68278 12256 ft 371 kts 173°
2026-05-05 18:14 33.46875 -84.67598 12787 ft 388 kts 165°
2026-05-05 18:15 33.44357 -84.66318 13558 ft 399 kts 154°
2026-05-05 18:15 33.42025 -84.64446 14351 ft 410 kts 143°
2026-05-05 18:15 33.39975 -84.62016 15116 ft 422 kts 131°
2026-05-05 18:15 33.38313 -84.59132 15897 ft 432 kts 122°
2026-05-05 18:16 33.36798 -84.56017 16731 ft 439 kts 121°
2026-05-05 18:16 33.35269 -84.52829 17502 ft 447 kts 120°
2026-05-05 18:16 33.33705 -84.49573 18265 ft 456 kts 120°
2026-05-05 18:16 33.32130 -84.46298 19095 ft 462 kts 121°
2026-05-05 18:17 33.30518 -84.42954 19920 ft 468 kts 120°
2026-05-05 18:17 33.28883 -84.39568 20702 ft 475 kts 120°
2026-05-05 18:17 33.27222 -84.36131 21450 ft 481 kts 120°
2026-05-05 18:17 33.25550 -84.32675 22204 ft 487 kts 121°
2026-05-05 18:18 33.23839 -84.29144 22885 ft 495 kts 121°
2026-05-05 18:18 33.22121 -84.25602 23606 ft 501 kts 121°
2026-05-05 18:18 33.20362 -84.21979 24290 ft 508 kts 121°
2026-05-05 18:18 33.18575 -84.18304 24993 ft 514 kts 121°
2026-05-05 18:19 33.16793 -84.14640 25680 ft 520 kts 121°
2026-05-05 18:19 33.14966 -84.10889 26344 ft 525 kts 121°
2026-05-05 18:19 33.13125 -84.07114 26971 ft 531 kts 121°
2026-05-05 18:19 33.11263 -84.03304 27558 ft 537 kts 121°
2026-05-05 18:20 33.09148 -83.99643 28105 ft 542 kts 130°
2026-05-05 18:20 33.06575 -83.96305 28639 ft 545 kts 139°
2026-05-05 18:20 33.03646 -83.93439 29193 ft 547 kts 147°
2026-05-05 18:20 33.00568 -83.90837 29866 ft 548 kts 148°
2026-05-05 18:21 32.97452 -83.88243 30665 ft 547 kts 148°
2026-05-05 18:21 32.94319 -83.85638 31437 ft 547 kts 149°
2026-05-05 18:21 32.91202 -83.83046 32129 ft 548 kts 149°
2026-05-05 18:21 32.88083 -83.80452 32719 ft 551 kts 149°
2026-05-05 18:22 32.84898 -83.77805 33242 ft 555 kts 149°
2026-05-05 18:22 32.81715 -83.75159 33875 ft 557 kts 149°
2026-05-05 18:22 32.78589 -83.72562 34650 ft 556 kts 149°
2026-05-05 18:22 32.75406 -83.69917 35494 ft 553 kts 149°
2026-05-05 18:23 32.72255 -83.67301 36125 ft 553 kts 149°
2026-05-05 18:23 32.69118 -83.64700 36764 ft 553 kts 149°
2026-05-05 18:23 32.66014 -83.62036 37301 ft 555 kts 148°
2026-05-05 18:23 32.62908 -83.59280 37798 ft 556 kts 147°
2026-05-05 18:24 32.59790 -83.56511 38234 ft 558 kts 148°
2026-05-05 18:24 32.56631 -83.53712 38761 ft 557 kts 147°
2026-05-05 18:24 32.53455 -83.50901 39258 ft 557 kts 148°
2026-05-05 18:24 32.50332 -83.48144 39686 ft 558 kts 148°
2026-05-05 18:25 32.47222 -83.45402 40066 ft 558 kts 147°
2026-05-05 18:25 32.45145 -83.43572 40319 ft 558 kts 147°
2026-05-05 18:25 32.40969 -83.39899 40906 ft 556 kts 147°
2026-05-05 18:25 32.37878 -83.37183 41057 ft 560 kts 148°
2026-05-05 18:26 32.34737 -83.34428 41050 ft 561 kts 149°
2026-05-05 18:26 32.28478 -83.28943 41043 ft 557 kts 148°
2026-05-05 18:27 32.22229 -83.23480 41039 ft 558 kts 148°
2026-05-05 18:27 32.15954 -83.18003 41046 ft 560 kts 149°
2026-05-05 18:28 32.06592 -83.09849 41047 ft 558 kts 148°
2026-05-05 18:28 32.00357 -83.04433 41052 ft 558 kts 148°
2026-05-05 18:29 31.94103 -82.99007 41058 ft 557 kts 148°
2026-05-05 18:29 31.87860 -82.93602 41030 ft 557 kts 148°
2026-05-05 18:30 31.81627 -82.88213 41042 ft 557 kts 148°
2026-05-05 18:30 31.75442 -82.82700 41048 ft 558 kts 144°
2026-05-05 18:31 31.69436 -82.76944 41052 ft 561 kts 144°
2026-05-05 18:31 31.63390 -82.71169 41048 ft 560 kts 144°
2026-05-05 18:32 31.57367 -82.65442 41065 ft 559 kts 144°
2026-05-05 18:32 31.51320 -82.59713 41068 ft 559 kts 145°
2026-05-05 18:33 31.45266 -82.53991 41062 ft 559 kts 144°
2026-05-05 18:33 31.39209 -82.48279 41065 ft 559 kts 144°
2026-05-05 18:34 31.33194 -82.42618 41066 ft 558 kts 144°
2026-05-05 18:34 31.27154 -82.36945 41067 ft 557 kts 144°
2026-05-05 18:35 31.21090 -82.31259 41053 ft 559 kts 145°
2026-05-05 18:35 31.15016 -82.25573 41035 ft 559 kts 144°
2026-05-05 18:36 31.08962 -82.19916 41025 ft 557 kts 145°
2026-05-05 18:36 31.02956 -82.14314 41018 ft 557 kts 144°
2026-05-05 18:37 30.96894 -82.08668 41023 ft 556 kts 145°
2026-05-05 18:37 30.90816 -82.03018 41025 ft 560 kts 144°
2026-05-05 18:38 30.84720 -81.97360 41005 ft 559 kts 144°
2026-05-05 18:38 30.78638 -81.91724 41024 ft 559 kts 144°
2026-05-05 18:39 30.72604 -81.86142 41021 ft 557 kts 144°
2026-05-05 18:39 30.66504 -81.80509 41043 ft 560 kts 144°
2026-05-05 18:40 30.60404 -81.74942 41057 ft 559 kts 147°
2026-05-05 18:40 30.54011 -81.69807 41054 ft 557 kts 149°
2026-05-05 18:41 30.47624 -81.64716 41065 ft 555 kts 149°
2026-05-05 18:41 30.41277 -81.59641 41069 ft 559 kts 149°
2026-05-05 18:42 30.34904 -81.54540 41077 ft 556 kts 149°
2026-05-05 18:42 30.28523 -81.49433 41084 ft 556 kts 148°
2026-05-05 18:43 30.22137 -81.44327 41086 ft 559 kts 148°
2026-05-05 18:43 30.15765 -81.39235 41087 ft 557 kts 148°
2026-05-05 18:44 30.09379 -81.34141 41089 ft 560 kts 149°
2026-05-05 18:44 30.02991 -81.29050 41075 ft 557 kts 149°
2026-05-05 18:45 29.96634 -81.23994 41076 ft 557 kts 149°
2026-05-05 18:45 29.90235 -81.18912 41073 ft 558 kts 149°
2026-05-05 18:46 29.83837 -81.13854 41057 ft 557 kts 152°
2026-05-05 18:46 29.76965 -81.09937 41070 ft 551 kts 163°
2026-05-05 18:47 29.69928 -81.06600 41063 ft 547 kts 163°
2026-05-05 18:47 29.62830 -81.03249 41064 ft 550 kts 163°
2026-05-05 18:48 29.55771 -80.99921 41074 ft 550 kts 163°
2026-05-05 18:48 29.48694 -80.96587 41078 ft 547 kts 163°
2026-05-05 18:49 29.41618 -80.93259 41076 ft 552 kts 163°
2026-05-05 18:49 29.34520 -80.89925 41079 ft 548 kts 163°
2026-05-05 18:50 29.27468 -80.86617 41079 ft 550 kts 163°
2026-05-05 18:50 29.20395 -80.83305 41079 ft 549 kts 163°
2026-05-05 18:51 29.13359 -80.80013 41085 ft 548 kts 163°
2026-05-05 18:51 29.06260 -80.76701 41086 ft 552 kts 163°
2026-05-05 18:52 28.99207 -80.73408 41079 ft 545 kts 163°
2026-05-05 18:52 28.92150 -80.70008 41076 ft 556 kts 157°
2026-05-05 18:53 28.85775 -80.65001 41052 ft 560 kts 138°
2026-05-05 18:53 28.80759 -80.58205 41064 ft 559 kts 122°
2026-05-05 18:54 28.76493 -80.50770 41061 ft 562 kts 121°
2026-05-05 18:54 28.72226 -80.43360 41057 ft 559 kts 122°
2026-05-05 18:55 28.67936 -80.36005 41056 ft 560 kts 122°
2026-05-05 18:55 28.63603 -80.28672 41051 ft 559 kts 122°
2026-05-05 18:56 28.59240 -80.21311 41047 ft 559 kts 122°
2026-05-05 18:56 28.54914 -80.14033 41055 ft 560 kts 122°
2026-05-05 18:57 28.50561 -80.06725 41071 ft 560 kts 122°
2026-05-05 18:57 28.46180 -79.99384 41065 ft 559 kts 122°
2026-05-05 18:58 28.41835 -79.92119 41070 ft 557 kts 122°
2026-05-05 18:58 28.37461 -79.84817 41074 ft 561 kts 122°
2026-05-05 18:59 28.33096 -79.77543 41071 ft 559 kts 122°
2026-05-05 18:59 28.28723 -79.70268 41074 ft 561 kts 122°
2026-05-05 19:00 28.24351 -79.63008 41075 ft 560 kts 122°
2026-05-05 19:00 28.19950 -79.55712 41074 ft 558 kts 122°
2026-05-05 19:01 28.15588 -79.48492 41066 ft 561 kts 123°
2026-05-05 19:01 28.11198 -79.41240 41066 ft 558 kts 122°
2026-05-05 19:02 28.06813 -79.34006 41058 ft 560 kts 122°
2026-05-05 19:02 28.02384 -79.26714 41042 ft 557 kts 123°
2026-05-05 19:03 27.98001 -79.19509 41044 ft 558 kts 123°
2026-05-05 19:03 27.93627 -79.12331 41041 ft 559 kts 122°
2026-05-05 19:04 27.89214 -79.05100 41028 ft 558 kts 122°
2026-05-05 19:04 27.84816 -78.97907 41025 ft 558 kts 123°
2026-05-05 19:05 27.80391 -78.90681 41024 ft 559 kts 123°
2026-05-05 19:05 27.75988 -78.83503 41026 ft 560 kts 123°
2026-05-05 19:06 27.71571 -78.76317 41028 ft 558 kts 122°
2026-05-05 19:06 27.67142 -78.69121 41029 ft 559 kts 122°
2026-05-05 19:07 27.62738 -78.61919 41036 ft 558 kts 121°
2026-05-05 19:07 27.58479 -78.54597 41034 ft 558 kts 121°
2026-05-05 19:08 27.54231 -78.47298 41036 ft 559 kts 121°
2026-05-05 19:08 27.49976 -78.40012 41038 ft 558 kts 120°
2026-05-05 19:09 27.45724 -78.32751 41022 ft 559 kts 121°
2026-05-05 19:09 27.41435 -78.25442 41025 ft 558 kts 121°
2026-05-05 19:10 27.37121 -78.18104 41026 ft 562 kts 121°
2026-05-05 19:10 27.32825 -78.10811 41028 ft 560 kts 121°
2026-05-05 19:11 27.28535 -78.03538 41029 ft 560 kts 121°
2026-05-05 19:11 27.24252 -77.96288 41035 ft 559 kts 121°
2026-05-05 19:12 27.19961 -77.89037 41042 ft 559 kts 121°
2026-05-05 19:12 27.15656 -77.81774 41040 ft 559 kts 121°
2026-05-05 19:13 27.11352 -77.74527 41039 ft 556 kts 121°
2026-05-05 19:13 27.07064 -77.67316 41042 ft 558 kts 122°
2026-05-05 19:14 27.02747 -77.60071 41047 ft 557 kts 121°
2026-05-05 19:14 26.98474 -77.52843 41046 ft 557 kts 121°
2026-05-05 19:15 26.94263 -77.45602 41056 ft 558 kts 121°
2026-05-05 19:15 26.90019 -77.38319 41047 ft 555 kts 120°
2026-05-05 19:16 26.85797 -77.31091 41016 ft 557 kts 121°
2026-05-05 19:16 26.81570 -77.23869 41018 ft 555 kts 121°
2026-05-05 19:17 26.77313 -77.16608 41022 ft 557 kts 121°
2026-05-05 19:17 26.73103 -77.09439 41024 ft 554 kts 121°
2026-05-05 19:18 26.68834 -77.02183 41027 ft 556 kts 121°
2026-05-05 19:18 26.64598 -76.94994 41025 ft 556 kts 121°
2026-05-05 19:19 26.60361 -76.87816 41033 ft 554 kts 121°
2026-05-05 19:19 26.56110 -76.80626 41031 ft 556 kts 121°
2026-05-05 19:20 26.51856 -76.73441 41031 ft 555 kts 121°
2026-05-05 19:20 26.47625 -76.66307 41031 ft 553 kts 121°
2026-05-05 19:21 26.43366 -76.59137 41031 ft 555 kts 121°
2026-05-05 19:21 26.39119 -76.51998 41039 ft 555 kts 121°
2026-05-05 19:22 26.34856 -76.44844 41043 ft 552 kts 121°
2026-05-05 19:22 26.30598 -76.37709 41041 ft 554 kts 121°
2026-05-05 19:23 26.26354 -76.30610 41025 ft 551 kts 122°
2026-05-05 19:23 26.22108 -76.23518 41028 ft 551 kts 121°
2026-05-05 19:24 26.17852 -76.16419 41031 ft 554 kts 122°
2026-05-05 19:24 26.13597 -76.09334 41029 ft 550 kts 122°
2026-05-05 19:25 26.09341 -76.02257 41038 ft 553 kts 122°
2026-05-05 19:25 26.05083 -75.95189 41040 ft 551 kts 122°
2026-05-05 19:26 26.00821 -75.88124 41033 ft 550 kts 122°
2026-05-05 19:26 25.96569 -75.81088 41037 ft 550 kts 122°
2026-05-05 19:27 25.92328 -75.74080 41046 ft 551 kts 122°
2026-05-05 19:27 25.88063 -75.67042 41020 ft 547 kts 122°
2026-05-05 19:28 25.83801 -75.60020 41029 ft 550 kts 122°
2026-05-05 19:28 25.79542 -75.53015 41033 ft 549 kts 122°
2026-05-05 19:29 25.75278 -75.46011 41032 ft 548 kts 122°
2026-05-05 19:29 25.71015 -75.39020 41036 ft 549 kts 123°
2026-05-05 19:30 25.66752 -75.32039 41025 ft 545 kts 123°
2026-05-05 19:30 25.62473 -75.25041 41027 ft 550 kts 123°
2026-05-05 19:31 25.58223 -75.18103 41028 ft 546 kts 122°
2026-05-05 19:31 25.53964 -75.11159 41034 ft 544 kts 123°
2026-05-05 19:32 25.49728 -75.04264 41040 ft 544 kts 123°
2026-05-05 19:32 25.45478 -74.97355 41042 ft 543 kts 123°
2026-05-05 19:33 25.41216 -74.90437 41043 ft 544 kts 123°
2026-05-05 19:33 25.36970 -74.83556 41037 ft 542 kts 123°
2026-05-05 19:34 25.32733 -74.76698 41043 ft 542 kts 123°
2026-05-05 19:35 25.26360 -74.66403 41043 ft 542 kts 123°
2026-05-05 19:35 25.22108 -74.59547 41042 ft 539 kts 123°
2026-05-05 19:36 25.17870 -74.52722 41055 ft 542 kts 124°
2026-05-05 19:36 25.13630 -74.45905 41058 ft 541 kts 124°
2026-05-05 19:37 25.09374 -74.39072 41054 ft 541 kts 123°
2026-05-05 19:37 25.05129 -74.32265 41034 ft 540 kts 124°
2026-05-05 19:38 25.00876 -74.25455 41033 ft 539 kts 124°
2026-05-05 19:38 24.96647 -74.18695 41048 ft 539 kts 124°
2026-05-05 19:39 24.92391 -74.11900 41047 ft 537 kts 124°
2026-05-05 19:39 24.88169 -74.05167 41040 ft 538 kts 124°
2026-05-05 19:40 24.83900 -73.98371 41039 ft 537 kts 124°
2026-05-05 19:40 24.79691 -73.91680 41042 ft 534 kts 124°
2026-05-05 19:41 24.75456 -73.84957 41044 ft 538 kts 124°
2026-05-05 19:41 24.71213 -73.78230 41040 ft 535 kts 124°
2026-05-05 19:42 24.66974 -73.71519 41048 ft 536 kts 124°
2026-05-05 19:42 24.62735 -73.64816 41044 ft 534 kts 124°
2026-05-05 19:43 24.58531 -73.58179 41049 ft 532 kts 124°
2026-05-05 19:43 24.54427 -73.51395 41054 ft 531 kts 120°
2026-05-05 19:44 24.50716 -73.44405 41042 ft 532 kts 119°
2026-05-05 19:44 24.47002 -73.37449 41042 ft 526 kts 119°
2026-05-05 19:45 24.43272 -73.30512 41032 ft 529 kts 120°
2026-05-05 19:45 24.39542 -73.23606 41032 ft 530 kts 121°
2026-05-05 19:46 24.35800 -73.16698 41029 ft 526 kts 121°
2026-05-05 19:46 24.32052 -73.09797 41035 ft 525 kts 121°
2026-05-05 19:47 24.28303 -73.02906 41035 ft 529 kts 121°
2026-05-05 19:47 24.24558 -72.96035 41030 ft 523 kts 121°
2026-05-05 19:48 24.20813 -72.89175 41039 ft 525 kts 121°
2026-05-05 19:48 24.17082 -72.82348 41041 ft 522 kts 121°
2026-05-05 19:49 24.13373 -72.75575 41040 ft 520 kts 121°
2026-05-05 19:49 24.09677 -72.68832 41041 ft 518 kts 121°
2026-05-05 19:50 24.05950 -72.62045 41039 ft 519 kts 121°
2026-05-05 19:50 24.02253 -72.55320 41042 ft 518 kts 121°
2026-05-05 19:51 23.98556 -72.48604 41050 ft 517 kts 122°
2026-05-05 19:51 23.94849 -72.41881 41048 ft 516 kts 122°
2026-05-05 19:52 23.91155 -72.35189 41044 ft 514 kts 122°
2026-05-05 19:52 23.87457 -72.28500 41034 ft 516 kts 122°
2026-05-05 19:53 23.83754 -72.21811 41032 ft 514 kts 122°
2026-05-05 19:53 23.80057 -72.15140 41033 ft 512 kts 123°
2026-05-05 19:54 23.76365 -72.08489 41039 ft 512 kts 122°
2026-05-05 19:54 23.72710 -72.01914 41036 ft 509 kts 122°
2026-05-05 19:55 23.69048 -71.95334 41029 ft 509 kts 123°
2026-05-05 19:55 23.65367 -71.88727 41031 ft 507 kts 123°
2026-05-05 19:56 23.61694 -71.82146 41032 ft 508 kts 123°
2026-05-05 19:56 23.57625 -71.75953 41033 ft 505 kts 129°
2026-05-05 19:57 23.53393 -71.69850 41035 ft 504 kts 129°
2026-05-05 19:57 23.49178 -71.63776 41038 ft 505 kts 129°
2026-05-05 19:58 23.44952 -71.57691 41039 ft 503 kts 129°
2026-05-05 19:58 23.40751 -71.51646 41038 ft 502 kts 129°
2026-05-05 19:59 23.36529 -71.45579 41039 ft 503 kts 129°
2026-05-05 19:59 23.32319 -71.39533 41039 ft 500 kts 130°
2026-05-05 20:00 23.28135 -71.33534 41028 ft 501 kts 130°
2026-05-05 20:00 23.23916 -71.27490 41025 ft 499 kts 130°
2026-05-05 20:01 23.19720 -71.21488 41027 ft 500 kts 130°
2026-05-05 20:01 23.15507 -71.15467 41031 ft 499 kts 130°
2026-05-05 20:02 23.11317 -71.09485 41026 ft 497 kts 130°
2026-05-05 20:02 23.07153 -71.03549 41026 ft 498 kts 131°
2026-05-05 20:03 23.02959 -70.97577 41031 ft 497 kts 131°
2026-05-05 20:03 22.98764 -70.91609 41030 ft 496 kts 131°
2026-05-05 20:04 22.94589 -70.85677 41032 ft 496 kts 131°
2026-05-05 20:04 22.90384 -70.79713 41036 ft 497 kts 131°
2026-05-05 20:05 22.86166 -70.73748 41036 ft 496 kts 131°
2026-05-05 20:05 22.81978 -70.67834 41037 ft 497 kts 131°
2026-05-05 20:06 22.77759 -70.61880 41041 ft 497 kts 131°
2026-05-05 20:06 22.73559 -70.55960 41041 ft 497 kts 131°
2026-05-05 20:07 22.69329 -70.50005 41041 ft 497 kts 131°
2026-05-05 20:07 22.65116 -70.44081 41039 ft 497 kts 131°
2026-05-05 20:08 22.60928 -70.38198 41035 ft 497 kts 131°
2026-05-05 20:08 22.56698 -70.32264 41020 ft 497 kts 131°
2026-05-05 20:09 22.52499 -70.26379 41028 ft 498 kts 131°
2026-05-05 20:09 22.48263 -70.20449 41027 ft 498 kts 131°
2026-05-05 20:10 22.44038 -70.14539 41027 ft 498 kts 131°
2026-05-05 20:10 22.39800 -70.08621 41026 ft 498 kts 131°
2026-05-05 20:11 22.35557 -70.02701 41027 ft 498 kts 131°
2026-05-05 20:11 22.31313 -69.96785 41030 ft 499 kts 131°
2026-05-05 20:12 22.27098 -69.90918 41029 ft 497 kts 131°
2026-05-05 20:12 22.22830 -69.84983 41029 ft 498 kts 131°
2026-05-05 20:13 22.18577 -69.79076 41031 ft 498 kts 131°
2026-05-05 20:13 22.14325 -69.73177 41032 ft 498 kts 131°
2026-05-05 20:14 22.10059 -69.67265 41033 ft 499 kts 131°
2026-05-05 20:14 22.05813 -69.61386 41032 ft 499 kts 131°
2026-05-05 20:15 22.01539 -69.55477 41033 ft 499 kts 131°
2026-05-05 20:15 21.97280 -69.49593 41033 ft 499 kts 131°
2026-05-05 20:16 21.93013 -69.43707 41032 ft 498 kts 131°
2026-05-05 20:16 21.88749 -69.37830 41032 ft 499 kts 131°
2026-05-05 20:17 21.84495 -69.31973 41021 ft 497 kts 132°
2026-05-05 20:17 21.80220 -69.26093 41022 ft 498 kts 132°
2026-05-05 20:18 21.75951 -69.20228 41027 ft 497 kts 132°
2026-05-05 20:18 21.71686 -69.14375 41026 ft 498 kts 132°
2026-05-05 20:19 21.67445 -69.08562 41023 ft 497 kts 132°
2026-05-05 20:19 21.63181 -69.02723 41028 ft 496 kts 132°
2026-05-05 20:20 21.58896 -68.96860 41028 ft 496 kts 132°
2026-05-05 20:20 21.54633 -68.91035 41031 ft 496 kts 132°
2026-05-05 20:21 21.50392 -68.85247 41033 ft 496 kts 132°
2026-05-05 20:21 21.46120 -68.79422 41037 ft 496 kts 132°
2026-05-05 20:22 21.41859 -68.73618 41038 ft 495 kts 132°
2026-05-05 20:22 21.37603 -68.67827 41032 ft 496 kts 132°
2026-05-05 20:23 21.33331 -68.62020 41038 ft 496 kts 132°
2026-05-05 20:23 21.29075 -68.56240 41034 ft 495 kts 132°
2026-05-05 20:24 21.24809 -68.50454 41035 ft 495 kts 132°
2026-05-05 20:24 21.20545 -68.44675 41031 ft 494 kts 132°
2026-05-05 20:25 21.16300 -68.38929 41028 ft 492 kts 132°
2026-05-05 20:25 21.12035 -68.33163 41019 ft 494 kts 133°
2026-05-05 20:26 21.07786 -68.27423 41021 ft 493 kts 133°
2026-05-05 20:26 21.03534 -68.21685 41018 ft 493 kts 133°
2026-05-05 20:27 20.99289 -68.15962 41025 ft 492 kts 133°
2026-05-05 20:27 20.95025 -68.10220 41022 ft 493 kts 133°
2026-05-05 20:28 20.90758 -68.04480 41023 ft 492 kts 133°
2026-05-05 20:28 20.86484 -67.98736 41030 ft 492 kts 133°
2026-05-05 20:29 20.82287 -67.92991 41031 ft 492 kts 132°
2026-05-05 20:29 20.78093 -67.87213 41031 ft 493 kts 132°
2026-05-05 20:30 20.73867 -67.81401 41032 ft 492 kts 132°
2026-05-05 20:30 20.69643 -67.75601 41033 ft 493 kts 132°
2026-05-05 20:31 20.65438 -67.69836 41031 ft 493 kts 132°
2026-05-05 20:31 20.61235 -67.64078 41032 ft 493 kts 132°
2026-05-05 20:32 20.57026 -67.58319 41034 ft 492 kts 132°
2026-05-05 20:32 20.52780 -67.52516 41035 ft 493 kts 132°
2026-05-05 20:33 20.48582 -67.46785 41035 ft 494 kts 132°
2026-05-05 20:33 20.44355 -67.41019 41037 ft 494 kts 132°
2026-05-05 20:34 20.40114 -67.35239 41037 ft 494 kts 132°
2026-05-05 20:34 20.35903 -67.29504 40709 ft 488 kts 132°
2026-05-05 20:34 20.33829 -67.26681 39734 ft 489 kts 132°
2026-05-05 20:35 20.31725 -67.23823 38862 ft 489 kts 132°
2026-05-05 20:35 20.29624 -67.20966 38106 ft 489 kts 132°
2026-05-05 20:35 20.27537 -67.18130 37353 ft 488 kts 132°
2026-05-05 20:35 20.25452 -67.15300 36565 ft 489 kts 132°
2026-05-05 20:36 20.23355 -67.12454 35761 ft 490 kts 132°
2026-05-05 20:36 20.21239 -67.09584 34948 ft 490 kts 131°
2026-05-05 20:36 20.19149 -67.06751 34111 ft 491 kts 131°
2026-05-05 20:36 20.17037 -67.03889 33273 ft 492 kts 131°
2026-05-05 20:37 20.14946 -67.01057 32463 ft 492 kts 131°
2026-05-05 20:37 20.13542 -66.99155 31899 ft 493 kts 131°
2026-05-05 20:37 20.10719 -66.95335 30722 ft 495 kts 131°
2026-05-05 20:37 20.08604 -66.92474 30131 ft 489 kts 131°
2026-05-05 20:38 20.06503 -66.89632 29622 ft 482 kts 131°
2026-05-05 20:38 20.04443 -66.86847 29069 ft 477 kts 130°
2026-05-05 20:38 20.02429 -66.84126 28504 ft 472 kts 130°
2026-05-05 20:38 20.00250 -66.81516 27932 ft 464 kts 139°
2026-05-05 20:39 19.97758 -66.79354 27372 ft 465 kts 148°
2026-05-05 20:39 19.94975 -66.77628 26807 ft 472 kts 155°
2026-05-05 20:39 19.92030 -66.76035 26230 ft 469 kts 155°
2026-05-05 20:39 19.89119 -66.74487 25665 ft 463 kts 155°
2026-05-05 20:40 19.86248 -66.72964 25114 ft 458 kts 155°
2026-05-05 20:40 19.83413 -66.71462 24567 ft 453 kts 155°
2026-05-05 20:40 19.80606 -66.69978 24022 ft 449 kts 155°
2026-05-05 20:40 19.77812 -66.68503 23474 ft 447 kts 155°
2026-05-05 20:41 19.75061 -66.67052 22932 ft 446 kts 154°
2026-05-05 20:41 19.72287 -66.65589 22378 ft 444 kts 154°
2026-05-05 20:41 19.69501 -66.64121 21818 ft 441 kts 154°
2026-05-05 20:41 19.66773 -66.62685 21267 ft 437 kts 154°
2026-05-05 20:42 19.64063 -66.61259 20708 ft 434 kts 155°
2026-05-05 20:42 19.61364 -66.59838 20148 ft 430 kts 155°
2026-05-05 20:42 19.58692 -66.58433 19595 ft 427 kts 155°
2026-05-05 20:42 19.56039 -66.57039 19034 ft 424 kts 155°
2026-05-05 20:43 19.53413 -66.55660 18462 ft 421 kts 155°
2026-05-05 20:43 19.50798 -66.54286 17898 ft 418 kts 155°
2026-05-05 20:43 19.48200 -66.52922 17328 ft 415 kts 155°
2026-05-05 20:43 19.45627 -66.51573 16740 ft 413 kts 155°
2026-05-05 20:44 19.43074 -66.50234 16173 ft 409 kts 155°
2026-05-05 20:44 19.40507 -66.48888 15612 ft 405 kts 154°
2026-05-05 20:44 19.37990 -66.47568 15065 ft 402 kts 154°
2026-05-05 20:44 19.35527 -66.46278 14522 ft 398 kts 154°
2026-05-05 20:45 19.30594 -66.43695 13428 ft 391 kts 154°
2026-05-05 20:45 19.28176 -66.42429 12892 ft 387 kts 154°
2026-05-05 20:45 19.25744 -66.41157 12352 ft 384 kts 154°
2026-05-05 20:46 19.23365 -66.39912 11819 ft 380 kts 154°
2026-05-05 20:46 19.21024 -66.38688 11493 ft 370 kts 154°
2026-05-05 20:46 19.18805 -66.37528 11339 ft 341 kts 154°
2026-05-05 20:46 19.16744 -66.36450 11287 ft 314 kts 153°
2026-05-05 20:47 19.14836 -66.35454 11241 ft 299 kts 153°
2026-05-05 20:47 19.13001 -66.34495 11094 ft 292 kts 154°
2026-05-05 20:47 19.11200 -66.33555 10956 ft 285 kts 154°
2026-05-05 20:47 19.09382 -66.32606 10800 ft 300 kts 154°
2026-05-05 20:48 19.07494 -66.31621 10595 ft 302 kts 154°
2026-05-05 20:48 19.05615 -66.30640 10402 ft 298 kts 154°
2026-05-05 20:48 19.03766 -66.29675 10219 ft 294 kts 154°
2026-05-05 20:48 19.01943 -66.28725 10041 ft 288 kts 154°
2026-05-05 20:49 19.00161 -66.27795 9858 ft 282 kts 154°
2026-05-05 20:49 18.98410 -66.26883 9665 ft 279 kts 153°
2026-05-05 20:49 18.96625 -66.26051 9387 ft 281 kts 162°
2026-05-05 20:49 18.94730 -66.25527 9104 ft 280 kts 166°
2026-05-05 20:50 18.92829 -66.25054 8819 ft 279 kts 166°
2026-05-05 20:50 18.90945 -66.24589 8535 ft 278 kts 166°
2026-05-05 20:50 18.89068 -66.24126 8243 ft 277 kts 166°
2026-05-05 20:50 18.87183 -66.23668 7954 ft 276 kts 166°
2026-05-05 20:51 18.85311 -66.23217 7672 ft 275 kts 166°
2026-05-05 20:51 18.83441 -66.22768 7385 ft 273 kts 166°
2026-05-05 20:51 18.81589 -66.22327 7097 ft 272 kts 166°
2026-05-05 20:51 18.79709 -66.22148 6804 ft 271 kts 183°
2026-05-05 20:52 18.77838 -66.22378 6520 ft 270 kts 186°
2026-05-05 20:52 18.75951 -66.22652 6228 ft 269 kts 186°
2026-05-05 20:52 18.74102 -66.22929 5990 ft 265 kts 186°
2026-05-05 20:52 18.72310 -66.23206 5949 ft 256 kts 186°
2026-05-05 20:53 18.70509 -66.23489 5971 ft 263 kts 186°
2026-05-05 20:53 18.68701 -66.23768 5972 ft 264 kts 186°
2026-05-05 20:53 18.66876 -66.24046 5944 ft 262 kts 186°
2026-05-05 20:53 18.65063 -66.24323 5944 ft 263 kts 186°
2026-05-05 20:54 18.63235 -66.24597 5915 ft 265 kts 186°
2026-05-05 20:54 18.61385 -66.24873 5685 ft 269 kts 186°
2026-05-05 20:54 18.59528 -66.25151 5403 ft 269 kts 186°
2026-05-05 20:54 18.57680 -66.25433 5119 ft 267 kts 186°
2026-05-05 20:55 18.55832 -66.25717 4834 ft 266 kts 186°
2026-05-05 20:55 18.53996 -66.26004 4551 ft 265 kts 186°
2026-05-05 20:55 18.52187 -66.26291 4270 ft 264 kts 186°
2026-05-05 20:55 18.50368 -66.26583 4026 ft 261 kts 186°
2026-05-05 20:56 18.48597 -66.26874 3986 ft 252 kts 186°
2026-05-05 20:56 18.46836 -66.27163 3993 ft 258 kts 186°
2026-05-05 20:56 18.45044 -66.27444 4001 ft 257 kts 183°
2026-05-05 20:56 18.43299 -66.27226 3996 ft 252 kts 160°
2026-05-05 20:57 18.41666 -66.26575 4009 ft 254 kts 156°
2026-05-05 20:57 18.40004 -66.25873 3899 ft 257 kts 156°
2026-05-05 20:57 18.38348 -66.25140 3664 ft 254 kts 149°
2026-05-05 20:57 18.37089 -66.23913 3399 ft 241 kts 121°
2026-05-05 20:58 18.36509 -66.22355 3161 ft 222 kts 107°
2026-05-05 20:58 18.36232 -66.20817 3034 ft 207 kts 87°
2026-05-05 20:58 18.36597 -66.19412 3015 ft 197 kts 71°
2026-05-05 20:58 18.37138 -66.18053 3019 ft 206 kts 69°
2026-05-05 20:59 18.37719 -66.16649 2921 ft 210 kts 69°
2026-05-05 20:59 18.38277 -66.15283 2631 ft 192 kts 69°
2026-05-05 20:59 18.38746 -66.14105 2449 ft 162 kts 70°
2026-05-05 20:59 18.39168 -66.13045 2262 ft 146 kts 70°
2026-05-05 21:00 18.39550 -66.12099 2093 ft 141 kts 70°
2026-05-05 21:00 18.39938 -66.11144 1914 ft 143 kts 70°
2026-05-05 21:00 18.40332 -66.10181 1731 ft 141 kts 70°
2026-05-05 21:00 18.40714 -66.09242 1546 ft 140 kts 70°
2026-05-05 21:01 18.41106 -66.08298 1380 ft 139 kts 68°
2026-05-05 21:01 18.41468 -66.07393 1161 ft 135 kts 72°
2026-05-05 21:01 18.41844 -66.06473 992 ft 137 kts 70°
2026-05-05 21:01 18.42235 -66.05525 841 ft 142 kts 71°
2026-05-05 21:02 18.42627 -66.04550 631 ft 144 kts 71°
2026-05-05 21:02 18.43021 -66.03589 430 ft 143 kts 72°
2026-05-05 21:02 18.43418 -66.02641 265 ft 140 kts 72°
2026-05-05 21:02 18.43794 -66.01700 100 ft 138 kts 71°
2026-05-05 21:03 18.44176 -66.00821 66 ft 131 kts 69°
2026-05-05 21:03 18.44562 -65.99838 519 ft 159 kts 73°
2026-05-05 21:03 18.44982 -65.98668 1264 ft 190 kts 70°
2026-05-05 21:03 18.45560 -65.97385 2286 ft 203 kts 66°
2026-05-05 21:04 18.46227 -65.95978 2748 ft 228 kts 65°
2026-05-05 21:04 18.46958 -65.94527 3040 ft 227 kts 64°
2026-05-05 21:04 18.47751 -65.93010 2919 ft 245 kts 58°
2026-05-05 21:04 18.49054 -65.91803 2793 ft 258 kts 27°
2026-05-05 21:05 18.50774 -65.91442 2928 ft 246 kts 356°
2026-05-05 21:05 18.52377 -65.91951 3032 ft 242 kts 338°
2026-05-05 21:05 18.53938 -65.92718 2990 ft 246 kts 336°
2026-05-05 21:05 18.55489 -65.93484 2986 ft 244 kts 336°
2026-05-05 21:06 18.56881 -65.94504 2979 ft 246 kts 311°
2026-05-05 21:06 18.57621 -65.96114 2974 ft 246 kts 279°
2026-05-05 21:06 18.57534 -65.97887 2982 ft 243 kts 257°
2026-05-05 21:06 18.57187 -65.99637 2985 ft 245 kts 256°
2026-05-05 21:07 18.56836 -66.01380 2984 ft 244 kts 256°
2026-05-05 21:07 18.56486 -66.03136 2981 ft 245 kts 256°
2026-05-05 21:07 18.56138 -66.04895 2977 ft 244 kts 256°
2026-05-05 21:07 18.55789 -66.06645 2974 ft 244 kts 256°
2026-05-05 21:08 18.55440 -66.08403 2970 ft 245 kts 256°
2026-05-05 21:08 18.55090 -66.10155 2976 ft 244 kts 256°
2026-05-05 21:08 18.54741 -66.11906 2978 ft 245 kts 256°
2026-05-05 21:08 18.54391 -66.13663 2977 ft 244 kts 256°
2026-05-05 21:09 18.54043 -66.15398 2979 ft 244 kts 256°
2026-05-05 21:09 18.53689 -66.17160 2980 ft 245 kts 256°
2026-05-05 21:09 18.53329 -66.18922 2978 ft 245 kts 256°
2026-05-05 21:09 18.52649 -66.20538 2971 ft 242 kts 231°
2026-05-05 21:10 18.51562 -66.21880 2977 ft 242 kts 226°
2026-05-05 21:10 18.50444 -66.23224 2977 ft 242 kts 226°
2026-05-05 21:10 18.49344 -66.24545 2979 ft 241 kts 226°
2026-05-05 21:10 18.48127 -66.25760 2982 ft 238 kts 208°
2026-05-05 21:11 18.46562 -66.26213 2975 ft 232 kts 177°
2026-05-05 21:11 18.45052 -66.25736 2979 ft 227 kts 145°
2026-05-05 21:11 18.44034 -66.24513 2989 ft 225 kts 119°
2026-05-05 21:11 18.43321 -66.23037 2993 ft 225 kts 113°
2026-05-05 21:12 18.43030 -66.21424 2998 ft 225 kts 96°
2026-05-05 21:12 18.42907 -66.19788 2996 ft 223 kts 95°
2026-05-05 21:12 18.42794 -66.18232 2991 ft 204 kts 95°
2026-05-05 21:12 18.42700 -66.16785 2852 ft 188 kts 94°
2026-05-05 21:13 18.42726 -66.15499 2550 ft 171 kts 84°
2026-05-05 21:13 18.42989 -66.14339 2353 ft 154 kts 77°
2026-05-05 21:13 18.43264 -66.13291 2242 ft 144 kts 79°
2026-05-05 21:13 18.43419 -66.12283 2132 ft 136 kts 88°
2026-05-05 21:14 18.43448 -66.11268 1926 ft 143 kts 92°
2026-05-05 21:14 18.43432 -66.10233 1610 ft 137 kts 92°
2026-05-05 21:14 18.43397 -66.09255 1488 ft 135 kts 93°
2026-05-05 21:14 18.43368 -66.08256 1292 ft 138 kts 91°
2026-05-05 21:15 18.43373 -66.07248 1087 ft 137 kts 93°
2026-05-05 21:15 18.43359 -66.06247 918 ft 137 kts 93°
2026-05-05 21:15 18.43367 -66.05214 727 ft 141 kts 92°
2026-05-05 21:15 18.43364 -66.04198 539 ft 138 kts 93°
2026-05-05 21:16 18.43364 -66.03171 369 ft 140 kts 94°
2026-05-05 21:16 18.43358 -66.02147 200 ft 141 kts 95°
2026-05-05 21:16 18.43359 -66.01109 42 ft 139 kts 93°
2026-05-05 21:16 18.43352 -66.00201 27 ft 103 kts 91°
2026-05-05 21:17 18.43350 -65.99600 27 ft 67 kts 91°
2026-05-05 21:17 18.43353 -65.99256 27 ft 29 kts 89°
2026-05-05 21:17 18.43361 -65.99106 27 ft 13 kts 70°
2026-05-05 21:17 18.43441 -65.99085 27 ft 12 kts 326°
2026-05-05 21:18 18.43462 -65.99170 27 ft 13 kts 270°
2026-05-05 21:18 18.43463 -65.99279 27 ft 15 kts 271°
2026-05-05 21:18 18.43463 -65.99402 27 ft 17 kts 270°
2026-05-05 21:18 18.43462 -65.99535 27 ft 18 kts 269°
2026-05-05 21:19 18.43462 -65.99667 27 ft 14 kts 270°
2026-05-05 21:19 18.43463 -65.99766 27 ft 13 kts 271°
2026-05-05 21:19 18.43464 -65.99867 27 ft 12 kts 275°
2026-05-05 21:19 18.43502 -65.99911 28 ft 9 kts 352°
2026-05-05 21:20 18.43553 -65.99942 28 ft 8 kts 292°
2026-05-05 21:20 18.43562 -65.99999 28 ft 6 kts 288°
2026-05-05 21:20 18.43593 -66.00044 28 ft 8 kts 314°
2026-05-05 21:20 18.43621 -66.00073 28 ft 3 kts 316°
2026-05-05 21:21 18.43622 -66.00073 28 ft 0 kts 316°
2026-05-05 21:21 18.43622 -66.00074 28 ft 0 kts 316°
2026-05-05 21:21 18.43625 -66.00076 28 ft 0 kts 316°